NW Arkansas Airport, AR

4:08 PM CDT on July 23, 2017 (GMT -0500)
Northwest Arkansas Regional

Weather History for KXNA - July, 2013

Change the Weather History Date:

Saturday, July 13, 2013

  Actual Average (KVBT) Record (KVBT)
Temperature  
Mean Temperature 76 °F -  
Max Temperature 90 °F 88 °F 112 °F (1954)
Min Temperature 64 °F 66 °F 52 °F (1975)
Cooling Degree Days 12    
Growing Degree Days 26 (Base 50)    
Moisture  
Dew Point 57 °F    
Average Humidity 52    
Maximum Humidity 87    
Minimum Humidity 34    
Precipitation  
Precipitation 0.00 in - - ()
Sea Level Pressure  
Sea Level Pressure 29.99 in    
Wind  
Wind Speed 3 mph (ESE)    
Max Wind Speed 10 mph    
Max Gust Speed -    
Visibility 10 miles    
Events      
Averages and records for this station are not official NWS values.
T = Trace of Precipitation, MM = Missing Value Source: NWS Daily Summary

Daily Weather History Graph

Daily Weather History Graph

Search for Another Location

Airport or City:

Trip Planner

Search our weather history database for the weather conditions in past years. The results will help you decide how hot, cold, wet, or windy it might be!

Date:

Astronomy

Jul. 13, 2013 Rise Set
Actual Time 6:10 AM CDT 8:35 PM CDT
Civil Twilight 5:40 AM CDT 9:05 PM CDT
Nautical Twilight 5:03 AM CDT 9:41 PM CDT
Astronomical Twilight 4:23 AM CDT 10:22 PM CDT
Moon 11:16 AM CDT (7/13) 11:28 PM CDT (7/13)
Length of Visible Light 15h 24m
Length of Day
14h 25m
Waxing Crescent, 26% of the Moon is Illuminated
Jul 13
Waxing Crescent
Jul 15
First Quarter
Jul 22
Full
Jul 29
Last Quarter
Aug 6
New

Hourly Weather History & Observations

Time (CDT) Temp. Heat Index Dew Point Humidity Pressure Visibility Wind Dir Wind Speed Gust Speed Precip Events Conditions
12:53 AM 73.0 °F - 61.0 °F 66% 29.99 in 10.0 mi Calm Calm - N/A   Clear
1:53 AM 69.1 °F - 61.0 °F 75% 29.99 in 10.0 mi Calm Calm - N/A   Clear
2:53 AM 64.9 °F - 61.0 °F 87% 30.00 in 10.0 mi Calm Calm - N/A   Clear
3:53 AM 66.0 °F - 61.0 °F 84% 30.01 in 10.0 mi Calm Calm - N/A   Clear
4:53 AM 64.9 °F - 59.0 °F 81% 30.01 in 10.0 mi East 4.6 mph - N/A   Clear
5:53 AM 64.9 °F - 57.0 °F 75% 30.01 in 10.0 mi Calm Calm - N/A   Clear
6:53 AM 66.0 °F - 55.0 °F 68% 30.02 in 8.0 mi SE 5.8 mph - N/A   Clear
7:53 AM 70.0 °F - 55.0 °F 59% 30.03 in 10.0 mi SE 4.6 mph - N/A   Clear
8:53 AM 73.9 °F - 55.0 °F 52% 30.04 in 10.0 mi South 8.1 mph - N/A   Clear
9:53 AM 78.1 °F - 55.9 °F 46% 30.04 in 10.0 mi South 8.1 mph - N/A   Clear
10:53 AM 82.0 °F 81.6 °F 55.9 °F 41% 30.04 in 10.0 mi SSE 5.8 mph - N/A   Clear
11:53 AM 84.0 °F 82.9 °F 55.0 °F 37% 30.02 in 10.0 mi Calm Calm - N/A   Clear
12:53 PM 86.0 °F 84.7 °F 55.9 °F 36% 30.01 in 10.0 mi WNW 4.6 mph - N/A   Clear
1:53 PM 89.1 °F 88.0 °F 57.9 °F 35% 29.99 in 10.0 mi Variable 3.5 mph - N/A   Clear
2:53 PM 89.1 °F 88.0 °F 57.9 °F 35% 29.99 in 8.0 mi ENE 10.4 mph - N/A   Clear
3:53 PM 89.1 °F 87.7 °F 57.0 °F 34% 29.97 in 10.0 mi East 10.4 mph - N/A   Partly Cloudy
4:53 PM 88.0 °F 86.7 °F 57.0 °F 35% 29.97 in 10.0 mi East 8.1 mph - N/A   Clear
5:53 PM 86.0 °F 84.9 °F 57.0 °F 37% 29.96 in 10.0 mi ENE 8.1 mph - N/A   Clear
6:53 PM 84.0 °F 82.6 °F 54.0 °F 35% 29.96 in 10.0 mi East 5.8 mph - N/A   Clear
7:53 PM 82.0 °F 81.4 °F 55.0 °F 39% 29.96 in 10.0 mi East 8.1 mph - N/A   Clear
8:53 PM 79.0 °F - 54.0 °F 42% 29.96 in 10.0 mi East 4.6 mph - N/A   Clear
9:53 PM 78.1 °F - 54.0 °F 43% 29.96 in 10.0 mi ESE 3.5 mph - N/A   Clear
10:53 PM 73.9 °F - 57.0 °F 55% 29.96 in 10.0 mi SW 3.5 mph - N/A   Clear
11:53 PM 73.9 °F - 57.0 °F 55% 29.98 in 10.0 mi ENE 4.6 mph - N/A   Clear